Location: Crescent
(42.8242°N, 73.7329°W)
Time: 08:44:31
(UTC+00:00)

Vanguard 1 Rocket - Pass Details

Date: 23 February 2026
Orbit: 653 x 4214 km, 34.3° (Epoch: 12 March)

Event Time Altitude Azimuth Distance (km) Brightness Sun altitude
Rises 20:02:04 0° 266° (W) 4,546 11.8 24.3°
Reaches altitude 10° 20:04:33 10° 262° (W) 3,886 11.7 24.0°
Maximum altitude 20:15:09 57° 187° (S) 2,846 10.7 22.5°
Drops below altitude 10° 20:35:15 10° 117° (ESE) 6,921 11.7 19.5°
Sets 20:41:33 0° 114° (ESE) 8,249 12.0 18.6°
